Canadian, TX

4:52 PM CDT on March 25, 2017 (GMT -0500)
Hemphill County

Weather History for KHHF - February, 2014

Change the Weather History Date:

Saturday, February 22, 2014

  Actual Average (KPPA) Record (KPPA)
Temperature  
Mean Temperature 44 °F -  
Max Temperature 65 °F 51 °F 80 °F (2017)
Min Temperature 24 °F 27 °F 5 °F (1978)
Degree Days  
Heating Degree Days 20    
Moisture  
Dew Point 14 °F    
Average Humidity 36    
Maximum Humidity 69    
Minimum Humidity 11    
Precipitation  
Precipitation 0.00 in - - ()
Sea Level Pressure  
Sea Level Pressure 29.85 in    
Wind  
Wind Speed 3 mph (NE)    
Max Wind Speed 12 mph    
Max Gust Speed -    
Visibility 10 miles    
Events      
Averages and records for this station are not official NWS values.
T = Trace of Precipitation, MM = Missing Value Source: NWS Daily Summary

Daily Weather History Graph

Daily Weather History Graph

Search for Another Location

Airport or City:

Trip Planner

Search our weather history database for the weather conditions in past years. The results will help you decide how hot, cold, wet, or windy it might be!

Date:

Astronomy

Feb. 22, 2014 Rise Set
Actual Time 7:20 AM CST 6:30 PM CST
Civil Twilight 6:54 AM CST 6:56 PM CST
Nautical Twilight 6:24 AM CST 7:25 PM CST
Astronomical Twilight 5:55 AM CST 7:55 PM CST
Moon 1:13 AM CST (2/22) 11:47 AM CST (2/22)
Length of Visible Light 12h 01m
Length of Day
11h 09m
Waning Gibbous, 50% of the Moon is Illuminated
Feb 22
Waning Gibbous
Mar 1
New
Mar 8
First Quarter
Mar 16
Full
Mar 23
Last Quarter

Hourly Weather History & Observations

Time (CST) Temp. Windchill Dew Point Humidity Pressure Visibility Wind Dir Wind Speed Gust Speed Precip Events Conditions
12:15 AM 32.5 °F - 14.7 °F 48% 29.88 in 10.0 mi Calm Calm - N/A   Clear
12:35 AM 31.3 °F - 15.3 °F 52% 29.88 in 10.0 mi Calm Calm - N/A   Clear
12:55 AM 32.2 °F 27.7 °F 15.1 °F 49% 29.88 in 10.0 mi NNE 4.6 mph - N/A   Clear
1:15 AM 34.7 °F - 12.9 °F 41% 29.87 in 10.0 mi Calm Calm - N/A   Clear
1:35 AM 31.3 °F - 13.8 °F 49% 29.86 in 10.0 mi Calm Calm - N/A   Clear
1:55 AM 32.2 °F - 13.5 °F 46% 29.86 in 10.0 mi Calm Calm - N/A   Clear
2:15 AM 28.4 °F - 14.9 °F 57% 29.85 in 10.0 mi Calm Calm - N/A   Clear
2:35 AM 28.2 °F - 14.0 °F 55% 29.84 in 10.0 mi Calm Calm - N/A   Clear
2:55 AM 30.0 °F - 14.2 °F 52% 29.84 in 10.0 mi Calm Calm - N/A   Clear
3:15 AM 29.1 °F - 14.7 °F 55% 29.83 in 10.0 mi Calm Calm - N/A   Clear
3:35 AM 27.5 °F - 15.4 °F 61% 29.83 in 10.0 mi Calm Calm - N/A   Clear
3:55 AM 27.5 °F 23.6 °F 14.7 °F 59% 29.82 in 10.0 mi SW 3.5 mph - N/A   Clear
4:15 AM 26.8 °F 22.8 °F 15.3 °F 62% 29.82 in 10.0 mi WSW 3.5 mph - N/A   Clear
4:35 AM 27.0 °F - 14.9 °F 60% 29.83 in 10.0 mi Calm Calm - N/A   Clear
4:55 AM 25.3 °F - 14.4 °F 63% 29.83 in 10.0 mi Calm Calm - N/A   Clear
5:15 AM 24.4 °F - 15.4 °F 69% 29.83 in 10.0 mi Calm Calm - N/A   Clear
5:35 AM 25.3 °F - 15.6 °F 67% 29.84 in 10.0 mi Calm Calm - N/A   Clear
5:55 AM 24.6 °F - 15.8 °F 69% 29.85 in 10.0 mi Calm Calm - N/A   Clear
6:15 AM 25.3 °F 21.1 °F 15.8 °F 67% 29.86 in 10.0 mi WSW 3.5 mph - N/A   Clear
6:35 AM 26.6 °F 19.1 °F 15.8 °F 64% 29.86 in 10.0 mi SW 6.9 mph - N/A   Clear
6:55 AM 26.6 °F 20.0 °F 15.6 °F 63% 29.87 in 10.0 mi WSW 5.8 mph - N/A   Clear
7:15 AM 26.2 °F 22.1 °F 15.4 °F 64% 29.86 in 10.0 mi SW 3.5 mph - N/A   Clear
7:35 AM 25.2 °F - 14.9 °F 65% 29.87 in 10.0 mi Calm Calm - N/A   Clear
7:55 AM 26.2 °F 22.1 °F 16.2 °F 66% 29.88 in 10.0 mi North 3.5 mph - N/A   Clear
8:15 AM 28.0 °F - 18.3 °F 67% 29.88 in 10.0 mi Calm Calm - N/A   Clear
8:35 AM 31.1 °F 25.4 °F 18.0 °F 58% 29.89 in 10.0 mi North 5.8 mph - N/A   Clear
8:55 AM 33.4 °F 27.3 °F 16.9 °F 51% 29.89 in 10.0 mi NNW 6.9 mph - N/A   Clear
9:15 AM 36.1 °F 28.2 °F 15.6 °F 43% 29.90 in 10.0 mi NNW 11.5 mph - N/A   Clear
9:35 AM 39.4 °F 33.8 °F 14.9 °F 37% 29.90 in 10.0 mi NW 8.1 mph - N/A   Clear
9:55 AM 44.1 °F 39.5 °F 12.0 °F 27% 29.91 in 10.0 mi NW 8.1 mph - N/A   Clear
10:15 AM 45.7 °F 41.0 °F 12.2 °F 26% 29.90 in 10.0 mi NW 9.2 mph - N/A   Clear
10:35 AM 47.5 °F - 12.2 °F 24% 29.90 in 10.0 mi NW 5.8 mph - N/A   Clear
10:55 AM 48.9 °F - 13.1 °F 24% 29.89 in 10.0 mi NNW 5.8 mph - N/A   Clear
11:15 AM 50.4 °F - 13.1 °F 23% 29.89 in 10.0 mi NNW 5.8 mph - N/A   Clear
11:35 AM 53.1 °F - 12.9 °F 20% 29.89 in 10.0 mi NW 8.1 mph - N/A   Clear
11:55 AM 55.0 °F - 12.2 °F 18% 29.88 in 10.0 mi NW 8.1 mph - N/A   Clear
12:15 PM 56.5 °F - 12.9 °F 18% 29.88 in 10.0 mi NW 8.1 mph - N/A   Clear
12:35 PM 58.5 °F - 13.3 °F 17% 29.87 in 10.0 mi WNW 6.9 mph - N/A   Clear
12:55 PM 61.0 °F - 13.1 °F 15% 29.86 in 10.0 mi North 6.9 mph - N/A   Clear
1:15 PM 62.4 °F - 12.2 °F 14% 29.85 in 10.0 mi WNW 5.8 mph - N/A   Clear
1:35 PM 63.7 °F - 10.6 °F 13% 29.83 in 10.0 mi Calm Calm - N/A   Clear
1:55 PM 63.9 °F - 10.4 °F 12% 29.82 in 10.0 mi NE 5.8 mph - N/A   Clear
2:15 PM 64.8 °F - 9.3 °F 11% 29.82 in 10.0 mi East 3.5 mph - N/A   Clear
2:35 PM 65.5 °F - 10.9 °F 12% 29.81 in 10.0 mi East 3.5 mph - N/A   Clear
2:55 PM 65.8 °F - 11.3 °F 12% 29.81 in 10.0 mi NE 8.1 mph - N/A   Clear
3:15 PM 65.1 °F - 10.2 °F 12% 29.81 in 10.0 mi NE 5.8 mph - N/A   Clear
3:35 PM 65.8 °F - 10.9 °F 12% 29.81 in 10.0 mi NE 8.1 mph - N/A   Clear
3:55 PM 65.7 °F - 10.4 °F 12% 29.81 in 10.0 mi North 4.6 mph - N/A   Clear
4:15 PM 65.7 °F - 10.0 °F 11% 29.81 in 10.0 mi NNE 6.9 mph - N/A   Clear
4:35 PM 65.5 °F - 9.5 °F 11% 29.81 in 10.0 mi East 3.5 mph - N/A   Clear
4:55 PM 65.3 °F - 9.1 °F 11% 29.81 in 10.0 mi NE 4.6 mph - N/A   Clear
5:15 PM 65.1 °F - 8.8 °F 11% 29.80 in 10.0 mi ENE 8.1 mph - N/A   Clear
5:35 PM 64.4 °F - 9.1 °F 11% 29.79 in 10.0 mi East 10.4 mph - N/A   Clear
5:55 PM 63.3 °F - 9.3 °F 12% 29.79 in 10.0 mi ENE 10.4 mph - N/A   Clear
6:15 PM 61.0 °F - 10.2 °F 14% 29.79 in 10.0 mi East 9.2 mph - N/A   Clear
6:35 PM 58.6 °F - 11.3 °F 15% 29.80 in 10.0 mi East 8.1 mph - N/A   Clear
6:55 PM 55.0 °F - 12.0 °F 18% 29.80 in 10.0 mi East 6.9 mph - N/A   Clear
7:15 PM 54.9 °F - 14.0 °F 20% 29.80 in 10.0 mi East 10.4 mph - N/A   Clear
7:35 PM 52.3 °F - 15.4 °F 23% 29.81 in 10.0 mi ESE 10.4 mph - N/A   Clear
7:55 PM 51.3 °F - 15.4 °F 24% 29.81 in 10.0 mi ESE 9.2 mph - N/A   Clear
8:15 PM 50.4 °F - 15.4 °F 25% 29.81 in 10.0 mi ESE 10.4 mph - N/A   Clear
8:35 PM 50.0 °F - 16.5 °F 26% 29.82 in 10.0 mi ESE 10.4 mph - N/A   Clear
8:55 PM 48.0 °F - 17.6 °F 30% 29.83 in 10.0 mi ESE 9.2 mph - N/A   Clear
9:15 PM 48.4 °F - 17.6 °F 29% 29.84 in 10.0 mi East 6.9 mph - N/A   Clear
9:35 PM 45.9 °F 42.9 °F 17.6 °F 32% 29.84 in 10.0 mi East 5.8 mph - N/A   Clear
9:55 PM 43.7 °F 40.3 °F 18.0 °F 36% 29.85 in 10.0 mi ESE 5.8 mph - N/A   Clear
10:15 PM 41.4 °F - 17.6 °F 38% 29.85 in 10.0 mi Calm Calm - N/A   Clear
10:35 PM 45.5 °F 41.3 °F 18.9 °F 35% 29.85 in 10.0 mi SE 8.1 mph - N/A   Clear
10:55 PM 44.6 °F 41.4 °F 19.2 °F 36% 29.85 in 10.0 mi ESE 5.8 mph - N/A   Clear
11:15 PM 41.7 °F 39.8 °F 18.9 °F 40% 29.87 in 10.0 mi East 3.5 mph - N/A   Clear
11:35 PM 39.2 °F 37.0 °F 19.4 °F 45% 29.87 in 10.0 mi NE 3.5 mph - N/A   Clear
11:55 PM 38.8 °F - 19.4 °F 46% 29.87 in 10.0 mi Calm Calm - N/A   Clear